| time (UTC) | temp F | wind direction | speed knots | gust knots | rain 1hr in | rain 24hr in | rain mn in | humidity % | barometer mb |
| 20260503021305 | 36 | 243 | 0.0 | 0.0 | 0.00 | 0.00 | 0.00 | 77 | 1016.5 |
| 20260503015805 | 37 | 243 | 0.0 | 0.0 | 0.00 | 0.00 | 0.00 | 75 | 1016.4 |
| 20260503015305 | 38 | 243 | 0.0 | 0.0 | 0.00 | 0.00 | 0.00 | 75 | 1016.4 |
| 20260503014805 | 38 | 243 | 0.0 | 0.0 | 0.00 | 0.00 | 0.00 | 74 | 1016.4 |
| 20260503014304 | 38 | 243 | 0.0 | 0.0 | 0.00 | 0.00 | 0.00 | 71 | 1016.4 |
| 20260503013807 | 39 | 243 | 0.0 | 0.0 | 0.00 | 0.00 | 0.00 | 71 | 1016.3 |
| 20260503013306 | 39 | 243 | 0.0 | 0.0 | 0.00 | 0.00 | 0.00 | 71 | 1016.3 |
| 20260503012806 | 39 | 243 | 0.0 | 0.0 | 0.00 | 0.00 | 0.00 | 71 | 1016.3 |
| 20260503012306 | 39 | 243 | 0.0 | 0.0 | 0.00 | 0.00 | 0.00 | 71 | 1016.3 |
| 20260503011805 | 40 | 243 | 0.0 | 0.0 | 0.00 | 0.00 | 0.00 | 69 | 1016.3 |
| 20260503011306 | 40 | 243 | 0.0 | 0.0 | 0.00 | 0.00 | 0.00 | 68 | 1016.3 |
| 20260503010806 | 41 | 243 | 0.0 | 0.0 | 0.00 | 0.00 | 0.00 | 67 | 1016.3 |
| 20260503010305 | 41 | 243 | 0.0 | 0.0 | 0.00 | 0.00 | 0.00 | 65 | 1016.3 |
| 20260503005305 | 42 | 243 | 0.0 | 0.0 | 0.00 | 0.00 | 0.00 | 63 | 1016.2 |
| 20260503004805 | 43 | 243 | 0.0 | 0.0 | 0.00 | 0.00 | 0.00 | 63 | 1016.1 |
| 20260503004305 | 43 | 243 | 0.0 | 0.0 | 0.00 | 0.00 | 0.00 | 60 | 1016.1 |
| 20260503003805 | 44 | 243 | 0.0 | 0.0 | 0.00 | 0.00 | 0.00 | 58 | 1016.1 |
| 20260503003305 | 45 | 243 | 0.0 | 1.7 | 0.00 | 0.00 | 0.00 | 58 | 1016.1 |
| 20260503002805 | 45 | 243 | 0.0 | 0.0 | 0.00 | 0.00 | 0.00 | 57 | 1016.1 |
| 20260503002306 | 45 | 243 | 0.0 | 0.0 | 0.00 | 0.00 | 0.00 | 56 | 1016.1 |
| 20260503001805 | 46 | 243 | 0.0 | 0.9 | 0.00 | 0.00 | 0.00 | 55 | 1016.1 |
| 20260503001306 | 46 | 243 | 0.0 | 2.6 | 0.00 | 0.00 | 0.00 | 54 | 1016.1 |
| 20260503000806 | 46 | 243 | 0.9 | 2.6 | 0.00 | 0.00 | 0.00 | 54 | 1016.0 |
| 20260503000305 | 46 | 248 | 0.0 | 1.7 | 0.00 | 0.00 | 0.00 | 54 | 1016.0 |
| 20260502234805 | 46 | 248 | 0.9 | 4.3 | 0.00 | 0.00 | 0.00 | 52 | 1016.1 |
| 20260502234305 | 47 | 248 | 1.7 | 2.6 | 0.00 | 0.00 | 0.00 | 52 | 1016.1 |
| 20260502233805 | 47 | 253 | 1.7 | 2.6 | 0.00 | 0.00 | 0.00 | 52 | 1016.1 |
| 20260502232806 | 47 | 226 | 1.7 | 5.2 | 0.00 | 0.00 | 0.00 | 50 | 1016.1 |
| 20260502232305 | 47 | 241 | 1.7 | 7.0 | 0.00 | 0.00 | 0.00 | 52 | 1016.1 |
| 20260502231805 | 47 | 229 | 1.7 | 4.3 | 0.00 | 0.00 | 0.00 | 50 | 1016.2 |
| 20260502231305 | 47 | 262 | 1.7 | 4.3 | 0.00 | 0.00 | 0.00 | 50 | 1016.2 |
| 20260502230806 | 47 | 279 | 0.9 | 2.6 | 0.00 | 0.00 | 0.00 | 51 | 1016.2 |
| 20260502225806 | 47 | 290 | 0.0 | 1.7 | 0.00 | 0.00 | 0.00 | 52 | 1016.3 |
| 20260502224806 | 47 | 306 | 0.9 | 2.6 | 0.00 | 0.00 | 0.00 | 51 | 1016.3 |
| 20260502224305 | 47 | 306 | 0.9 | 2.6 | 0.00 | 0.00 | 0.00 | 50 | 1016.3 |
| 20260502223805 | 47 | 304 | 1.7 | 5.2 | 0.00 | 0.00 | 0.00 | 49 | 1016.3 |
| 20260502223305 | 48 | 309 | 1.7 | 2.6 | 0.00 | 0.00 | 0.00 | 48 | 1016.3 |
| 20260502222806 | 48 | 283 | 0.9 | 2.6 | 0.00 | 0.00 | 0.00 | 51 | 1016.3 |
| 20260502222305 | 48 | 290 | 1.7 | 5.2 | 0.00 | 0.00 | 0.00 | 48 | 1016.3 |
| 20260502221806 | 48 | 324 | 0.9 | 4.3 | 0.00 | 0.00 | 0.00 | 49 | 1016.2 |
| 20260502221305 | 48 | 288 | 1.7 | 4.3 | 0.00 | 0.00 | 0.00 | 49 | 1016.2 |
| 20260502220805 | 48 | 339 | 0.9 | 4.3 | 0.00 | 0.00 | 0.00 | 51 | 1016.2 |
| 20260502220305 | 48 | 262 | 0.9 | 5.2 | 0.00 | 0.00 | 0.00 | 50 | 1016.2 |
| 20260502215305 | 47 | 324 | 0.9 | 2.6 | 0.00 | 0.00 | 0.00 | 51 | 1016.2 |
| 20260502214805 | 47 | 189 | 1.7 | 2.6 | 0.00 | 0.00 | 0.00 | 51 | 1016.2 |
| 20260502214305 | 47 | 306 | 0.9 | 4.3 | 0.00 | 0.00 | 0.00 | 50 | 1016.3 |
| 20260502213305 | 47 | 235 | 1.7 | 2.6 | 0.00 | 0.00 | 0.00 | 49 | 1016.3 |
| 20260502212806 | 47 | 280 | 1.7 | 5.2 | 0.00 | 0.00 | 0.00 | 48 | 1016.3 |
| 20260502212305 | 47 | 296 | 0.9 | 2.6 | 0.00 | 0.00 | 0.00 | 50 | 1016.3 |
| 20260502211805 | 47 | 269 | 1.7 | 4.3 | 0.00 | 0.00 | 0.00 | 50 | 1016.3 |
| 20260502211306 | 47 | 259 | 0.9 | 2.6 | 0.00 | 0.00 | 0.00 | 50 | 1016.4 |
| 20260502210805 | 47 | 322 | 0.9 | 2.6 | 0.00 | 0.00 | 0.00 | 48 | 1016.4 |
| 20260502210305 | 47 | 311 | 1.7 | 4.3 | 0.00 | 0.00 | 0.00 | 47 | 1016.5 |
| 20260502205805 | 47 | 308 | 1.7 | 2.6 | 0.00 | 0.00 | 0.00 | 48 | 1016.4 |
| 20260502205307 | 47 | 301 | 2.6 | 5.2 | 0.00 | 0.00 | 0.00 | 47 | 1016.4 |
| 20260502204805 | 47 | 310 | 1.7 | 4.3 | 0.00 | 0.00 | 0.00 | 48 | 1016.4 |
| 20260502204306 | 48 | 295 | 0.9 | 4.3 | 0.00 | 0.00 | 0.00 | 47 | 1016.5 |
| 20260502203805 | 48 | 332 | 0.9 | 4.3 | 0.00 | 0.00 | 0.00 | 49 | 1016.4 |
| 20260502203305 | 48 | 328 | 0.9 | 4.3 | 0.00 | 0.00 | 0.00 | 50 | 1016.6 |
| 20260502202805 | 47 | 309 | 1.7 | 2.6 | 0.00 | 0.00 | 0.00 | 48 | 1016.5 |
| 20260502202305 | 47 | 307 | 1.7 | 4.3 | 0.00 | 0.00 | 0.00 | 50 | 1016.6 |
| 20260502201805 | 47 | 304 | 1.7 | 6.1 | 0.00 | 0.00 | 0.00 | 48 | 1016.7 |
| 20260502201305 | 47 | 314 | 1.7 | 2.6 | 0.00 | 0.00 | 0.00 | 48 | 1016.7 |
| 20260502200805 | 47 | 303 | 0.9 | 2.6 | 0.00 | 0.00 | 0.00 | 51 | 1016.7 |
| 20260502200305 | 47 | 308 | 1.7 | 5.2 | 0.00 | 0.00 | 0.00 | 50 | 1016.8 |
| 20260502195305 | 47 | 305 | 1.7 | 5.2 | 0.00 | 0.00 | 0.00 | 48 | 1016.9 |
| 20260502194805 | 47 | 282 | 3.5 | 6.1 | 0.00 | 0.00 | 0.00 | 46 | 1016.9 |
| 20260502194305 | 47 | 277 | 1.7 | 5.2 | 0.00 | 0.00 | 0.00 | 49 | 1017.0 |
| 20260502193805 | 47 | 287 | 2.6 | 4.3 | 0.00 | 0.00 | 0.00 | 48 | 1017.0 |
| 20260502193305 | 47 | 295 | 2.6 | 2.6 | 0.00 | 0.00 | 0.00 | 47 | 1017.0 |
| 20260502192805 | 47 | 279 | 4.3 | 7.0 | 0.00 | 0.00 | 0.00 | 46 | 1017.1 |
| 20260502192305 | 47 | 258 | 1.7 | 5.2 | 0.00 | 0.00 | 0.00 | 47 | 1017.1 |
| 20260502191805 | 47 | 275 | 1.7 | 5.2 | 0.00 | 0.00 | 0.00 | 48 | 1017.2 |
| 20260502191305 | 47 | 289 | 1.7 | 5.2 | 0.00 | 0.00 | 0.00 | 48 | 1017.2 |
| 20260502190805 | 48 | 250 | 2.6 | 6.1 | 0.00 | 0.00 | 0.00 | 46 | 1017.3 |
| 20260502190305 | 48 | 299 | 0.9 | 7.0 | 0.00 | 0.00 | 0.00 | 49 | 1017.3 |
| 20260502185805 | 47 | 317 | 1.7 | 2.6 | 0.00 | 0.00 | 0.00 | 51 | 1017.3 |
| 20260502185306 | 47 | 303 | 0.9 | 4.3 | 0.00 | 0.00 | 0.00 | 49 | 1017.4 |
| 20260502184805 | 47 | 255 | 1.7 | 4.3 | 0.00 | 0.00 | 0.00 | 48 | 1017.4 |
| 20260502183806 | 48 | 289 | 0.9 | 2.6 | 0.00 | 0.00 | 0.00 | 47 | 1017.5 |
| 20260502182805 | 47 | 321 | 0.9 | 2.6 | 0.00 | 0.00 | 0.00 | 51 | 1017.5 |
| 20260502181305 | 47 | 246 | 1.7 | 4.3 | 0.00 | 0.00 | 0.00 | 48 | 1017.5 |
| 20260502180805 | 47 | 243 | 0.9 | 4.3 | 0.00 | 0.00 | 0.00 | 48 | 1017.5 |
| 20260502180305 | 47 | 276 | 1.7 | 4.3 | 0.00 | 0.00 | 0.00 | 51 | 1017.6 |
| 20260502170305 | 47 | 308 | 2.6 | 6.1 | 0.00 | 0.00 | 0.00 | 50 | 1018.0 |
| 20260502164305 | 45 | 5 | 0.0 | 2.6 | 0.00 | 0.00 | 0.00 | 56 | 1018.1 |
| 20260502163805 | 45 | 293 | 1.7 | 2.6 | 0.00 | 0.00 | 0.00 | 51 | 1018.2 |
| 20260502163305 | 46 | 295 | 1.7 | 2.6 | 0.00 | 0.00 | 0.00 | 52 | 1018.2 |
| 20260502162806 | 46 | 297 | 1.7 | 2.6 | 0.00 | 0.00 | 0.00 | 52 | 1018.2 |
| 20260502162305 | 46 | 338 | 0.9 | 4.3 | 0.00 | 0.00 | 0.00 | 50 | 1018.2 |
| 20260502161805 | 46 | 288 | 2.6 | 5.2 | 0.00 | 0.00 | 0.00 | 52 | 1018.2 |
| 20260502161307 | 46 | 248 | 1.7 | 5.2 | 0.00 | 0.00 | 0.00 | 51 | 1018.2 |
| 20260502160805 | 46 | 285 | 1.7 | 5.2 | 0.00 | 0.00 | 0.00 | 49 | 1018.3 |
| 20260502160305 | 47 | 316 | 0.9 | 4.3 | 0.00 | 0.00 | 0.00 | 50 | 1018.3 |
| 20260502152305 | 47 | 14 | 1.7 | 6.1 | 0.00 | 0.00 | 0.00 | 56 | 1018.1 |
| 20260502151805 | 46 | 20 | 1.7 | 6.1 | 0.00 | 0.00 | 0.00 | 57 | 1018.0 |
| 20260502151305 | 46 | 26 | 4.3 | 11.3 | 0.00 | 0.00 | 0.00 | 55 | 1017.9 |
| 20260502150306 | 44 | 284 | 1.7 | 4.3 | 0.00 | 0.00 | 0.00 | 59 | 1018.1 |
| 20260502130305 | 42 | 24 | 0.9 | 1.7 | 0.00 | 0.00 | 0.00 | 69 | 1018.1 |
| 20260502123805 | 40 | 328 | 0.9 | 2.6 | 0.00 | 0.00 | 0.00 | 76 | 1018.1 |
| 20260502123305 | 39 | 21 | 0.9 | 2.6 | 0.00 | 0.00 | 0.00 | 76 | 1018.1 |
| 20260502122805 | 39 | 298 | 0.9 | 2.6 | 0.00 | 0.00 | 0.00 | 76 | 1018.1 |
| 20260502122306 | 39 | 331 | 0.9 | 2.6 | 0.00 | 0.00 | 0.00 | 79 | 1018.1 |
| 20260502121805 | 38 | 346 | 0.0 | 2.6 | 0.00 | 0.00 | 0.00 | 80 | 1018.1 |
| 20260502120805 | 37 | 197 | 0.9 | 2.6 | 0.00 | 0.00 | 0.00 | 83 | 1018.0 |
| 20260502120306 | 36 | 22 | 0.0 | 1.7 | 0.00 | 0.00 | 0.00 | 83 | 1018.0 |
| 20260502115805 | 35 | 330 | 0.9 | 1.7 | 0.00 | 0.00 | 0.00 | 84 | 1018.0 |
| 20260502115306 | 35 | 349 | 0.0 | 1.7 | 0.00 | 0.00 | 0.00 | 85 | 1018.0 |
| 20260502113805 | 34 | 292 | 0.0 | 1.7 | 0.00 | 0.00 | 0.00 | 87 | 1017.9 |
| 20260502113305 | 33 | 302 | 0.9 | 2.6 | 0.00 | 0.00 | 0.00 | 88 | 1017.8 |
| 20260502112805 | 33 | 217 | 0.9 | 1.7 | 0.00 | 0.00 | 0.00 | 89 | 1017.8 |
| 20260502112306 | 32 | 249 | 0.0 | 1.7 | 0.00 | 0.00 | 0.00 | 89 | 1017.7 |
| 20260502111305 | 31 | 58 | 0.0 | 0.9 | 0.00 | 0.00 | 0.00 | 88 | 1017.7 |
| 20260502110805 | 31 | 58 | 0.0 | 0.0 | 0.00 | 0.00 | 0.00 | 88 | 1017.6 |
| 20260502110306 | 31 | 58 | 0.0 | 0.0 | 0.00 | 0.00 | 0.00 | 88 | 1017.6 |
| 20260502105805 | 32 | 58 | 0.0 | 0.0 | 0.00 | 0.00 | 0.00 | 88 | 1017.5 |
| 20260502104805 | 32 | 58 | 0.0 | 0.0 | 0.00 | 0.00 | 0.00 | 88 | 1017.5 |
| 20260502104305 | 32 | 58 | 0.0 | 0.0 | 0.00 | 0.00 | 0.00 | 87 | 1017.5 |
| 20260502103805 | 32 | 58 | 0.0 | 0.0 | 0.00 | 0.00 | 0.00 | 87 | 1017.5 |
| 20260502101804 | 33 | 58 | 0.0 | 0.0 | 0.00 | 0.00 | 0.00 | 86 | 1017.4 |
| 20260502100805 | 33 | 58 | 0.0 | 0.0 | 0.00 | 0.00 | 0.00 | 86 | 1017.4 |
| 20260502100305 | 34 | 58 | 0.0 | 0.0 | 0.00 | 0.00 | 0.00 | 86 | 1017.4 |
| 20260502091305 | 36 | 58 | 0.0 | 0.0 | 0.00 | 0.00 | 0.00 | 88 | 1017.1 |
| 20260502090805 | 36 | 58 | 0.0 | 0.0 | 0.00 | 0.00 | 0.00 | 88 | 1017.1 |
| 20260502090305 | 37 | 58 | 0.0 | 0.0 | 0.00 | 0.00 | 0.00 | 87 | 1017.0 |
| 20260502071305 | 39 | 45 | 0.0 | 0.0 | 0.00 | 0.01 | 0.00 | 84 | 1016.7 |
| 20260502070805 | 39 | 45 | 0.0 | 0.9 | 0.00 | 0.01 | 0.00 | 84 | 1016.7 |
| 20260502070305 | 39 | 45 | 0.0 | 0.9 | 0.00 | 0.01 | 0.00 | 84 | 1016.7 |
| 20260502065805 | 39 | 45 | 0.0 | 0.9 | 0.00 | 0.01 | 0.00 | 83 | 1016.6 |
| 20260502064305 | 39 | 44 | 0.0 | 1.7 | 0.00 | 0.01 | 0.00 | 82 | 1016.8 |
| 20260502063305 | 39 | 5 | 0.0 | 0.0 | 0.00 | 0.01 | 0.00 | 82 | 1016.9 |
| 20260502062805 | 39 | 5 | 0.0 | 0.9 | 0.00 | 0.01 | 0.00 | 81 | 1016.9 |
| 20260502062306 | 39 | 75 | 0.9 | 1.7 | 0.00 | 0.01 | 0.00 | 81 | 1016.9 |
| 20260502061805 | 40 | 11 | 0.0 | 2.6 | 0.00 | 0.01 | 0.00 | 81 | 1016.9 |
| 20260502061305 | 40 | 69 | 0.9 | 2.6 | 0.00 | 0.01 | 0.00 | 80 | 1016.9 |
| 20260502060805 | 40 | 40 | 0.9 | 2.6 | 0.00 | 0.01 | 0.00 | 80 | 1016.9 |
| 20260502060305 | 40 | 43 | 0.9 | 2.6 | 0.00 | 0.01 | 0.00 | 80 | 1016.9 |
| 20260502055805 | 40 | 41 | 0.9 | 2.6 | 0.00 | 0.01 | 0.00 | 79 | 1017.0 |
| 20260502055306 | 40 | 36 | 0.9 | 2.6 | 0.00 | 0.01 | 0.00 | 79 | 1017.0 |
| 20260502054804 | 40 | 36 | 0.9 | 2.6 | 0.00 | 0.01 | 0.00 | 79 | 1017.0 |
| 20260502054305 | 40 | 355 | 0.9 | 2.6 | 0.00 | 0.01 | 0.00 | 79 | 1017.1 |
| 20260502053805 | 40 | 87 | 0.9 | 2.6 | 0.00 | 0.01 | 0.00 | 79 | 1017.1 |
| 20260502053305 | 40 | 26 | 1.7 | 5.2 | 0.00 | 0.01 | 0.00 | 79 | 1017.1 |
| 20260502051805 | 40 | 38 | 0.0 | 2.6 | 0.00 | 0.01 | 0.00 | 79 | 1017.0 |
| 20260502051305 | 40 | 65 | 0.9 | 2.6 | 0.00 | 0.01 | 0.00 | 79 | 1017.0 |
| 20260502050805 | 40 | 353 | 0.9 | 2.6 | 0.00 | 0.01 | 0.00 | 79 | 1016.9 |
| 20260502050305 | 40 | 330 | 0.9 | 1.7 | 0.00 | 0.01 | 0.00 | 80 | 1016.9 |
| 20260502045306 | 40 | 286 | 0.9 | 1.7 | 0.00 | 0.01 | 0.00 | 82 | 1016.8 |
| 20260502044305 | 39 | 322 | 0.9 | 2.6 | 0.00 | 0.01 | 0.00 | 84 | 1016.8 |
| 20260502043805 | 39 | 333 | 0.0 | 1.7 | 0.00 | 0.01 | 0.00 | 84 | 1016.7 |
| 20260502043305 | 39 | 49 | 0.0 | 0.0 | 0.00 | 0.01 | 0.00 | 85 | 1016.6 |
| 20260502042805 | 39 | 49 | 0.0 | 0.0 | 0.00 | 0.02 | 0.00 | 85 | 1016.6 |
| 20260502042306 | 39 | 49 | 0.0 | 0.0 | 0.00 | 0.02 | 0.00 | 85 | 1016.6 |
| 20260502040827 | 39 | 49 | 0.0 | 0.0 | 0.00 | 0.02 | 0.00 | 85 | 1016.4 |
| 20260502040306 | 39 | 49 | 0.0 | 0.0 | 0.00 | 0.02 | 0.00 | 85 | 1016.4 |
| 20260502035805 | 39 | 49 | 0.0 | 0.0 | 0.00 | 0.03 | 0.03 | 85 | 1016.4 |
| 20260502035306 | 39 | 49 | 0.0 | 0.9 | 0.00 | 0.03 | 0.03 | 85 | 1016.4 |
| 20260502034305 | 39 | 49 | 0.0 | 0.0 | 0.00 | 0.03 | 0.03 | 83 | 1016.4 |
| 20260502033305 | 39 | 49 | 0.0 | 0.0 | 0.00 | 0.03 | 0.03 | 83 | 1016.4 |
| 20260502032805 | 39 | 49 | 0.0 | 0.0 | 0.00 | 0.03 | 0.03 | 81 | 1016.3 |
| 20260502032306 | 39 | 49 | 0.0 | 0.0 | 0.00 | 0.03 | 0.03 | 80 | 1016.3 |
| 20260502031805 | 39 | 49 | 0.0 | 0.0 | 0.00 | 0.03 | 0.03 | 79 | 1016.3 |
| 20260502031305 | 40 | 49 | 0.0 | 0.0 | 0.00 | 0.03 | 0.03 | 79 | 1016.3 |
| 20260502030305 | 41 | 49 | 0.0 | 0.0 | 0.00 | 0.03 | 0.03 | 79 | 1016.3 |
| 20260502025805 | 41 | 49 | 0.0 | 0.0 | 0.00 | 0.03 | 0.03 | 78 | 1016.3 |
| 20260502025306 | 41 | 49 | 0.0 | 0.9 | 0.00 | 0.03 | 0.03 | 79 | 1016.3 |
| 20260502024805 | 41 | 49 | 0.0 | 0.0 | 0.00 | 0.03 | 0.03 | 78 | 1016.3 |
| 20260502024305 | 41 | 49 | 0.0 | 0.0 | 0.00 | 0.03 | 0.03 | 78 | 1016.3 |
| 20260502023805 | 42 | 49 | 0.0 | 0.0 | 0.00 | 0.03 | 0.03 | 78 | 1016.3 |
| 20260502022805 | 42 | 49 | 0.0 | 0.0 | 0.00 | 0.03 | 0.03 | 77 | 1016.2 |
| 20260502022306 | 42 | 49 | 0.0 | 0.9 | 0.00 | 0.03 | 0.03 | 77 | 1016.2 |